When you browse on this site, cookies collect data to enhance your experience and personalize the content and advertising you see.
Visit our Privacy Policy to learn more. By continuing to use the site, you agree to this use of cookies and data.
  • En España
  • Lista de países
  • Para 7 días
  • Temperatura del agua
  • El tiempo en el mapa
  • Informadores
  • user-avatar
    Iniciar sesión

    Tiempo cada hora Alcorcón

    Hoy, 31 Marzo, Martes

    Tiempo Temperatura Precipitaciones Viento Presión Humedad
    00:00 -1°C° 0 mm 6 mps 694 mmHg 91%
    01:00 -1°C° 0.2 mm 6 mps 693 mmHg 90%
    02:00 -1°C° 0.2 mm 6 mps 693 mmHg 89%
    03:00 -1°C° 0.2 mm 6 mps 692 mmHg 88%
    04:00 -1°C° 0.5 mm 6 mps 692 mmHg 88%
    05:00 -1°C° 0.5 mm 6 mps 692 mmHg 89%
    06:00 +1°C° 0 mm 5 mps 692 mmHg 89%
    07:00 +2°C° 1.6 mm 5 mps 692 mmHg 90%
    08:00 +2°C° 1.6 mm 5 mps 692 mmHg 91%
    09:00 +3°C° 1.6 mm 5 mps 692 mmHg 92%
    10:00 +5°C° 0.9 mm 5 mps 692 mmHg 90%
    11:00 +6°C° 0.9 mm 5 mps 692 mmHg 88%
    12:00 +6°C° 0 mm 5 mps 692 mmHg 86%
    13:00 +7°C° 0.2 mm 5 mps 692 mmHg 85%
    14:00 +7°C° 0.2 mm 5 mps 692 mmHg 84%
    15:00 +7°C° 0.2 mm 5 mps 691 mmHg 83%
    16:00 +8°C° 0.5 mm 5 mps 692 mmHg 84%
    17:00 +8°C° 0.5 mm 5 mps 692 mmHg 86%
    18:00 +8°C° 0.5 mm 5 mps 692 mmHg 87%
    19:00 +8°C° 2.3 mm 5 mps 693 mmHg 88%
    20:00 +8°C° 2.3 mm 5 mps 693 mmHg 89%
    21:00 +8°C° 2.3 mm 5 mps 694 mmHg 90%
    22:00 +7°C° 0.9 mm 5 mps 694 mmHg 91%
    23:00 +7°C° 0.9 mm 4 mps 694 mmHg 92%

    Mañana, 1 Abril, Miércoles

    Tiempo Temperatura Precipitaciones Viento Presión Humedad
    00:00 +7°C° 0.9 mm 4 mps 695 mmHg 94%
    01:00 +7°C° 0.2 mm 3 mps 695 mmHg 94%
    02:00 +7°C° 0.2 mm 3 mps 695 mmHg 94%
    03:00 +7°C° 0.2 mm 2 mps 695 mmHg 95%
    04:00 +6°C° 0 mm 2 mps 695 mmHg 94%
    05:00 +6°C° 0 mm 1 mps 695 mmHg 93%
    06:00 +6°C° 0 mm 1 mps 695 mmHg 92%
    07:00 +7°C° 0 mm 1 mps 695 mmHg 86%
    08:00 +8°C° 0 mm 1 mps 696 mmHg 79%
    09:00 +10°C° 0 mm 1 mps 696 mmHg 73%
    10:00 +10°C° 0 mm 2 mps 696 mmHg 68%
    11:00 +12°C° 0 mm 2 mps 697 mmHg 62%
    12:00 +12°C° 0 mm 3 mps 697 mmHg 57%
    13:00 +12°C° 0.1 mm 3 mps 696 mmHg 56%
    14:00 +12°C° 0.1 mm 4 mps 696 mmHg 54%
    15:00 +12°C° 0.1 mm 4 mps 696 mmHg 53%
    16:00 +12°C° 0 mm 4 mps 696 mmHg 54%
    17:00 +11°C° 0 mm 3 mps 695 mmHg 56%
    18:00 +11°C° 0 mm 3 mps 695 mmHg 57%
    19:00 +9°C° 0 mm 3 mps 696 mmHg 59%
    20:00 +8°C° 0 mm 2 mps 696 mmHg 61%
    21:00 +7°C° 0 mm 2 mps 697 mmHg 63%
    22:00 +7°C° 0 mm 2 mps 697 mmHg 64%
    23:00 +7°C° 0 mm 1 mps 697 mmHg 65%

    Pasado mañana, 2 Abril, Jueves

    Tiempo Temperatura Precipitaciones Viento Presión Humedad
    00:00 +7°C° 0 mm 1 mps 697 mmHg 67%
    01:00 +6°C° 0 mm 1 mps 696 mmHg 67%
    02:00 +6°C° 0 mm 1 mps 696 mmHg 68%
    03:00 +6°C° 0 mm 1 mps 696 mmHg 69%
    04:00 +5°C° 0 mm 1 mps 696 mmHg 70%
    05:00 +5°C° 0 mm 1 mps 696 mmHg 71%
    06:00 +5°C° 0 mm 1 mps 695 mmHg 72%
    07:00 +7°C° 0 mm 1 mps 696 mmHg 65%
    08:00 +9°C° 0 mm 1 mps 696 mmHg 59%
    09:00 +9°C° 0 mm 2 mps 696 mmHg 52%
    10:00 +12°C° 0 mm 1 mps 696 mmHg 49%
    11:00 +13°C° 0 mm 1 mps 696 mmHg 47%
    12:00 +14°C° 0 mm 1 mps 696 mmHg 44%
    13:00 +14°C° 0.2 mm 1 mps 696 mmHg 45%
    14:00 +15°C° 0.2 mm 1 mps 695 mmHg 45%
    15:00 +15°C° 0.2 mm 1 mps 695 mmHg 45%
    16:00 +14°C° 0.5 mm 2 mps 695 mmHg 54%
    17:00 +12°C° 0.5 mm 3 mps 695 mmHg 62%
    18:00 +11°C° 0.5 mm 4 mps 695 mmHg 70%
    19:00 +10°C° 0.1 mm 4 mps 696 mmHg 70%
    20:00 +10°C° 0.1 mm 4 mps 697 mmHg 70%
    21:00 +8°C° 0.1 mm 4 mps 698 mmHg 70%
    22:00 +8°C° 0 mm 4 mps 698 mmHg 70%
    23:00 +7°C° 0 mm 4 mps 698 mmHg 70%

    3 Abril, Viernes

    Tiempo Temperatura Precipitaciones Viento Presión Humedad
    00:00 +6°C° 0 mm 4 mps 698 mmHg 70%
    01:00 +6°C° 0 mm 4 mps 698 mmHg 71%
    02:00 +5°C° 0 mm 3 mps 698 mmHg 72%
    03:00 +5°C° 0 mm 3 mps 698 mmHg 73%
    04:00 +5°C° 0 mm 3 mps 698 mmHg 74%
    05:00 +5°C° 0 mm 2 mps 698 mmHg 74%
    06:00 +5°C° 0 mm 2 mps 698 mmHg 75%
    07:00 +7°C° 0 mm 2 mps 699 mmHg 70%
    08:00 +8°C° 0 mm 2 mps 699 mmHg 65%
    09:00 +10°C° 0 mm 2 mps 699 mmHg 59%
    10:00 +12°C° 0 mm 2 mps 699 mmHg 55%
    11:00 +14°C° 0 mm 1 mps 699 mmHg 51%
    12:00 +15°C° 0 mm 1 mps 699 mmHg 46%
    13:00 +15°C° 0 mm 1 mps 698 mmHg 44%
    14:00 +16°C° 0 mm 1 mps 698 mmHg 42%
    15:00 +18°C° 0 mm 1 mps 698 mmHg 40%
    16:00 +16°C° 0 mm 1 mps 698 mmHg 43%
    17:00 +16°C° 0 mm 1 mps 698 mmHg 47%
    18:00 +15°C° 0 mm 2 mps 697 mmHg 50%
    19:00 +14°C° 0 mm 2 mps 698 mmHg 53%
    20:00 +13°C° 0 mm 2 mps 698 mmHg 57%
    21:00 +11°C° 0 mm 3 mps 699 mmHg 61%
    22:00 +10°C° 0 mm 3 mps 699 mmHg 66%
    23:00 +10°C° 0 mm 3 mps 699 mmHg 71%

    4 Abril, Sábado

    Tiempo Temperatura Precipitaciones Viento Presión Humedad
    00:00 +8°C° 0 mm 4 mps 699 mmHg 76%
    01:00 +8°C° 0 mm 3 mps 699 mmHg 78%
    02:00 +8°C° 0 mm 3 mps 699 mmHg 80%
    03:00 +7°C° 0 mm 2 mps 699 mmHg 81%
    04:00 +7°C° 0 mm 3 mps 699 mmHg 82%
    05:00 +7°C° 0 mm 3 mps 699 mmHg 82%
    06:00 +5°C° 0 mm 3 mps 699 mmHg 82%
    07:00 +8°C° 0 mm 3 mps 699 mmHg 74%
    08:00 +8°C° 0 mm 4 mps 699 mmHg 65%
    09:00 +11°C° 0 mm 4 mps 699 mmHg 56%
    10:00 +12°C° 0 mm 5 mps 699 mmHg 51%
    11:00 +14°C° 0 mm 5 mps 699 mmHg 46%
    12:00 +15°C° 0 mm 6 mps 699 mmHg 41%
    13:00 +16°C° 0 mm 7 mps 698 mmHg 42%
    14:00 +16°C° 0 mm 7 mps 698 mmHg 43%
    15:00 +17°C° 0 mm 8 mps 698 mmHg 43%
    16:00 +16°C° 0 mm 8 mps 697 mmHg 48%
    17:00 +15°C° 0 mm 8 mps 697 mmHg 53%
    18:00 +13°C° 0 mm 8 mps 697 mmHg 58%
    19:00 +12°C° 0 mm 8 mps 698 mmHg 61%
    20:00 +11°C° 0 mm 8 mps 698 mmHg 64%
    21:00 +10°C° 0 mm 8 mps 698 mmHg 67%
    22:00 +10°C° 0 mm 8 mps 699 mmHg 69%
    23:00 +9°C° 0 mm 8 mps 699 mmHg 72%

    5 Abril, Domingo

    Tiempo Temperatura Precipitaciones Viento Presión Humedad
    00:00 +9°C° 0 mm 7 mps 699 mmHg 74%
    01:00 +9°C° 0 mm 7 mps 699 mmHg 75%
    02:00 +9°C° 0 mm 6 mps 698 mmHg 76%
    03:00 +8°C° 0 mm 5 mps 698 mmHg 77%
    04:00 +8°C° 0.1 mm 5 mps 698 mmHg 80%
    05:00 +8°C° 0.1 mm 5 mps 698 mmHg 82%
    06:00 +8°C° 0.1 mm 5 mps 698 mmHg 84%
    07:00 +8°C° 0.3 mm 5 mps 698 mmHg 84%
    08:00 +9°C° 0.3 mm 5 mps 698 mmHg 83%
    09:00 +9°C° 0.3 mm 5 mps 698 mmHg 82%
    10:00 +10°C° 0.8 mm 4 mps 698 mmHg 83%
    11:00 +10°C° 0.8 mm 4 mps 698 mmHg 83%
    12:00 +10°C° 0.8 mm 4 mps 698 mmHg 84%
    13:00 +10°C° 1.3 mm 4 mps 698 mmHg 86%
    14:00 +10°C° 1.3 mm 4 mps 697 mmHg 87%
    15:00 +10°C° 1.3 mm 3 mps 697 mmHg 89%
    16:00 +10°C° 0.8 mm 3 mps 697 mmHg 89%
    17:00 +11°C° 0.8 mm 3 mps 697 mmHg 90%
    18:00 +11°C° 0.8 mm 3 mps 697 mmHg 90%
    19:00 +11°C° 0.9 mm 3 mps 697 mmHg 92%
    20:00 +11°C° 0.9 mm 3 mps 698 mmHg 93%
    21:00 +11°C° 0.9 mm 3 mps 698 mmHg 94%
    22:00 +11°C° 0.3 mm 3 mps 698 mmHg 94%
    23:00 +11°C° 0.3 mm 3 mps 698 mmHg 94%
    Mostrar más